PBO Station Position Time Series. Reference Frame : NAM14
Format Version,1.1.1
4-character ID,1LSU
Station name,Louisiana_St
Begin Date, 2003-04-23
End Date, 2023-06-26
Release Date, 2023-06-27
Reference position, 30.4074246622 North Latitude, -91.1802619382 East Longitude, -6.55879 meters elevation,
Date, North (mm), East (mm), Vertical (mm), North Std. Deviation (mm), East Std. Deviation (mm),              Vertical Std. Deviation (mm), Quality,
2003-04-23,0.00, 0.00, 0.00, 1.82, 1.75, 7.53, repro,
2003-04-24,1.51, -1.14, 2.01, 1.92, 1.93, 8.02, repro,
2003-04-25,-0.23, -0.36, 14.68, 2.02, 1.94, 8.69, repro,
2003-04-26,-0.51, -1.16, -3.79, 1.84, 1.78, 7.71, repro,
2003-04-27,-1.01, -1.91, -3.01, 1.80, 1.74, 7.48, repro,
2003-04-28,-1.95, -2.10, -1.59, 1.90, 1.81, 7.95, repro,
2003-04-29,-1.48, -0.88, -4.01, 1.82, 1.76, 7.62, repro,
2003-04-30,-0.62, -1.85, -9.90, 1.87, 1.85, 7.99, repro,
2003-05-01,-1.12, -2.24, -6.62, 1.84, 1.80, 7.79, repro,
2003-05-02,-1.26, 0.00, -5.52, 1.85, 1.80, 7.70, repro,
2003-05-03,-2.01, -2.04, -7.68, 1.89, 1.78, 7.74, repro,
2003-05-04,-2.33, -3.25, 4.31, 1.90, 1.84, 7.80, repro,
2003-05-05,-2.21, -3.48, -3.07, 1.85, 1.80, 7.70, repro,
2003-05-06,-1.57, -2.81, -2.02, 1.88, 1.81, 7.71, repro,
2003-05-07,-1.26, -0.74, 5.90, 1.96, 1.95, 8.01, repro,
2003-05-08,-1.71, -2.67, -10.65, 1.92, 1.86, 7.89, repro,
2003-05-09,-2.43, -1.77, -4.65, 1.92, 1.87, 7.91, repro,
2003-05-10,-0.39, -2.51, -7.71, 1.85, 1.77, 7.59, repro,
2003-05-11,-2.44, -2.22, -1.01, 1.85, 1.78, 7.69, repro,
2003-05-12,1.86, -1.86, -7.94, 1.89, 1.84, 7.90, repro,
2003-05-13,-0.47, -0.55, -7.92, 1.88, 1.85, 7.87, repro,
2003-05-14,-2.50, -1.58, -9.98, 1.92, 1.90, 8.22, repro,
2003-05-15,-2.34, -3.23, -14.38, 1.97, 2.00, 8.32, repro,
2003-05-16,-0.81, -2.14, -11.02, 1.84, 1.82, 7.71, repro,
2003-05-17,-1.83, -0.75, -1.92, 1.91, 1.82, 7.88, repro,
2003-05-18,0.67, 0.25, 3.25, 2.20, 2.37, 9.54, repro,
2003-05-19,-0.33, -3.40, 3.27, 1.89, 1.81, 7.92, repro,
2003-05-20,-3.03, 2.63, -9.27, 2.67, 2.88, 11.14, repro,
2003-06-07,-0.94, 1.56, 12.90, 3.05, 2.73, 13.33, repro,
2003-06-08,0.50, 1.61, 1.69, 1.94, 1.92, 8.12, repro,
2003-06-09,1.55, -0.59, -5.21, 1.91, 1.86, 8.01, repro,
2003-06-10,1.64, 2.38, 11.12, 2.15, 2.12, 8.68, repro,
2003-06-11,1.67, 3.52, 15.31, 2.06, 2.09, 8.73, repro,
2003-06-12,-0.81, 0.04, -1.68, 2.02, 2.01, 8.50, repro,
2003-06-13,0.58, 4.22, -6.13, 1.88, 1.89, 7.97, repro,
2003-06-14,-0.88, -2.05, 10.93, 1.89, 1.88, 8.01, repro,
2003-06-15,-2.90, 0.33, 0.59, 2.23, 2.11, 8.98, repro,
2003-06-16,0.02, 1.49, -1.47, 2.20, 2.00, 8.92, repro,
2003-06-17,-0.59, -0.05, 4.98, 1.92, 1.86, 7.97, repro,
2003-06-18,-0.92, 0.40, 4.23, 1.90, 1.90, 8.02, repro,
2003-06-19,-1.87, -0.73, -0.42, 1.96, 1.93, 8.47, repro,
2003-06-20,-2.25, 2.84, 20.02, 1.92, 1.86, 8.02, repro,
2003-06-21,0.98, 1.02, 4.13, 2.00, 1.99, 8.61, repro,
2003-06-22,-0.64, -1.14, 3.46, 1.89, 1.83, 7.91, repro,
2003-06-23,-0.80, -0.64, -2.99, 1.95, 1.83, 8.07, repro,
2003-06-24,1.80, 0.45, -10.42, 2.27, 2.21, 9.65, repro,
2003-06-25,0.13, -0.26, -9.11, 2.11, 2.09, 8.65, repro,
2003-06-26,-1.78, -1.44, -6.49, 2.13, 2.32, 9.01, repro,
2003-06-27,0.78, 1.29, 4.47, 2.00, 2.04, 8.47, repro,
2003-06-28,-0.81, 1.15, -12.10, 1.91, 2.00, 8.23, repro,
2003-06-29,-1.47, 2.94, 2.38, 1.99, 1.95, 8.23, repro,
2003-06-30,-2.24, 1.35, -9.97, 1.83, 1.76, 7.72, repro,
2003-07-01,-0.78, 2.05, 2.89, 1.92, 1.88, 8.01, repro,
2003-07-02,-0.83, 1.03, -6.01, 1.92, 1.89, 8.03, repro,
2003-07-03,-1.42, 0.64, 5.49, 1.97, 1.90, 8.68, repro,
2003-07-04,-0.53, 1.82, 3.65, 1.87, 1.80, 7.95, repro,
2003-07-05,-1.17, 0.10, 3.09, 1.93, 1.91, 8.37, repro,
2003-07-06,-1.09, 0.70, -2.38, 1.90, 1.79, 7.95, repro,
2003-07-07,0.37, 1.69, -4.12, 1.99, 2.03, 8.55, repro,
2003-07-08,-0.15, -0.79, -12.46, 1.92, 1.91, 8.12, repro,
2003-07-09,2.11, -1.25, -11.47, 1.93, 1.90, 8.05, repro,
2003-07-10,-0.07, -2.46, -3.15, 2.21, 2.37, 9.62, repro,
2003-07-11,-0.74, -1.16, 1.84, 2.16, 2.30, 8.99, repro,
2003-07-12,-1.49, -3.02, -6.01, 2.30, 2.30, 9.49, repro,
2003-07-13,-0.76, -0.27, -4.11, 1.89, 1.86, 7.87, repro,
2003-07-14,-1.85, -3.55, -9.60, 2.11, 2.32, 9.11, repro,
2003-07-15,-2.10, 0.47, 3.51, 1.96, 1.94, 8.19, repro,
2003-07-16,-0.45, -0.43, 5.46, 2.30, 2.50, 10.00, repro,
2003-07-17,-2.22, -3.55, -17.79, 2.07, 2.04, 8.78, repro,
2003-07-18,-4.88, -2.60, -8.01, 2.18, 2.10, 8.98, repro,
2003-07-19,-3.11, -0.14, -13.68, 2.07, 2.09, 8.95, repro,
2003-07-20,-3.35, -0.72, -6.98, 1.91, 1.89, 7.99, repro,
2003-07-21,-2.20, -1.72, 0.22, 1.95, 1.99, 8.24, repro,
2003-07-22,0.10, -4.27, 0.30, 2.07, 2.06, 8.85, repro,
2003-07-23,-1.65, -1.48, -4.60, 2.00, 1.89, 8.21, repro,
2003-07-24,-2.95, -2.24, -9.23, 1.95, 1.91, 8.15, repro,
2003-07-25,-0.36, -3.16, -10.10, 2.09, 2.20, 8.89, repro,
2003-07-26,-0.85, -3.95, -5.14, 2.11, 2.23, 8.87, repro,
2003-07-27,-2.71, -1.61, -10.63, 1.97, 1.89, 8.31, repro,
2003-07-28,-2.06, -2.13, -7.13, 1.95, 1.88, 8.41, repro,
2003-07-29,-1.35, -3.34, 4.35, 1.90, 1.85, 8.05, repro,
2003-07-30,-3.31, -3.69, -9.06, 1.90, 1.86, 8.00, repro,
2003-07-31,-3.90, -3.12, -7.34, 2.10, 2.23, 9.26, repro,
2003-08-01,-0.96, -2.06, -7.08, 2.14, 2.12, 9.40, repro,
2003-08-02,-3.23, -2.73, -8.53, 1.92, 1.83, 8.18, repro,
2003-08-03,-2.44, -4.26, 0.87, 2.18, 2.21, 9.55, repro,
2003-08-04,-4.81, -2.76, -6.39, 1.99, 1.98, 8.71, repro,
2003-08-05,-4.72, -3.80, -7.21, 1.83, 1.77, 7.65, repro,
2003-08-06,-3.20, -5.00, -8.12, 1.84, 1.77, 7.77, repro,
2003-08-07,-3.64, -2.27, 0.62, 1.91, 1.89, 8.18, repro,
2003-08-08,-3.51, -0.56, -2.65, 1.86, 1.77, 7.74, repro,
2003-08-09,-3.94, -3.99, -2.49, 2.01, 2.02, 8.58, repro,
2003-08-10,-2.72, -4.97, 0.82, 1.91, 1.87, 7.92, repro,
2003-08-11,-3.77, -4.57, -7.15, 1.83, 1.77, 7.74, repro,
2003-08-12,-1.96, -4.20, -5.45, 1.96, 1.94, 8.16, repro,
2003-08-13,-2.80, -1.72, -18.00, 1.82, 1.76, 7.64, repro,
2003-08-14,-2.75, -2.87, -16.96, 1.83, 1.77, 7.66, repro,
2003-08-15,-3.03, -5.71, -13.14, 1.85, 1.80, 7.85, repro,
2003-08-16,-1.42, -4.95, -1.81, 1.95, 1.87, 8.06, repro,
2003-08-17,-4.22, -3.39, -8.95, 1.96, 1.90, 8.20, repro,
2003-08-18,-2.55, -3.73, -7.03, 1.97, 1.92, 8.44, repro,
2003-08-19,-2.14, -5.75, -8.63, 1.96, 1.88, 8.29, repro,
2003-08-20,-4.37, -6.21, -14.29, 2.19, 2.01, 9.05, repro,
2003-08-21,-2.55, -2.98, -8.37, 2.26, 2.11, 9.58, repro,
2003-08-22,-3.69, -2.37, -20.37, 2.09, 1.90, 8.78, repro,
2003-08-23,-3.27, -2.21, -14.80, 1.94, 1.81, 8.37, repro,
2003-08-24,-5.39, -4.06, -8.57, 2.32, 2.17, 9.80, repro,
2003-08-25,-3.42, -4.07, -14.48, 1.83, 1.77, 7.66, repro,
2003-08-26,-3.47, -6.10, -3.32, 1.84, 1.79, 7.77, repro,
2003-08-27,-4.31, -5.53, 1.35, 2.33, 2.17, 9.68, repro,
2003-08-28,-6.08, -5.48, -8.86, 2.00, 1.98, 8.62, repro,
2003-08-29,-3.61, -4.95, -14.53, 1.82, 1.77, 7.68, repro,
2003-08-30,-4.01, -4.13, -13.57, 1.90, 1.87, 8.00, repro,
2003-08-31,-4.21, -3.78, -22.63, 2.05, 2.02, 8.59, repro,
2003-09-01,-7.92, 0.49, 2.60, 2.13, 2.24, 9.25, repro,
2003-09-02,-4.17, -2.33, -8.82, 1.96, 1.91, 8.22, repro,
2003-09-03,-6.68, -4.28, -17.93, 1.95, 1.88, 8.27, repro,
2003-09-04,-3.60, -2.14, -8.73, 1.89, 1.80, 8.05, repro,
2003-09-05,-6.06, -4.45, -5.65, 1.86, 1.78, 7.75, repro,
2003-09-06,-5.12, -4.30, -6.26, 1.88, 1.80, 7.96, repro,
2003-09-07,-4.11, -3.62, -7.45, 1.88, 1.84, 7.78, repro,
2003-09-08,-3.89, -4.61, -7.54, 1.96, 1.83, 8.13, repro,
2003-09-09,-2.97, -3.98, -19.57, 1.92, 1.91, 8.07, repro,
2003-09-10,-4.14, -5.41, -3.52, 1.94, 1.88, 8.38, repro,
2003-09-11,-3.25, -2.32, -8.30, 1.95, 1.88, 8.21, repro,
2003-09-12,-2.00, -2.69, -3.19, 2.07, 1.94, 8.61, repro,
2003-09-13,-5.32, -0.72, 1.11, 1.97, 1.99, 8.28, repro,
2003-09-14,-5.78, -0.34, -4.85, 1.83, 1.78, 7.67, repro,
2003-09-15,-4.17, -2.79, -3.15, 1.92, 1.86, 8.20, repro,
2003-09-16,-3.81, -2.52, -5.18, 1.91, 1.81, 8.00, repro,
2003-09-17,-3.31, -1.95, -4.75, 1.86, 1.80, 7.74, repro,
2003-09-18,-3.19, -1.06, -2.49, 1.87, 1.80, 7.92, repro,
2003-09-19,-3.63, -1.95, -8.45, 1.92, 1.85, 8.11, repro,
2003-09-20,-2.70, -2.55, -9.70, 1.95, 1.85, 8.26, repro,
2003-09-21,-3.63, -1.77, -2.61, 1.93, 1.82, 8.11, repro,
2003-09-22,-4.50, -1.40, -1.94, 1.97, 1.90, 8.39, repro,
2003-09-23,-3.48, -1.50, -9.51, 1.94, 1.88, 8.14, repro,
2003-09-24,-3.20, -2.81, -17.61, 1.98, 1.90, 8.39, repro,
2003-09-25,-3.65, -2.76, -1.89, 1.92, 1.89, 8.01, repro,
2003-09-26,-2.73, -4.24, -10.43, 2.09, 1.99, 8.93, repro,
2003-09-27,-3.84, -3.43, -6.60, 2.03, 1.92, 8.69, repro,
2003-09-28,-6.27, -4.76, -1.86, 1.95, 1.84, 8.14, repro,
2003-09-29,-4.58, -3.60, -14.60, 2.13, 1.99, 9.10, repro,
2003-09-30,-5.20, -3.16, -20.82, 2.08, 1.94, 8.81, repro,
2003-10-01,-4.73, -1.82, -17.07, 1.93, 1.82, 8.09, repro,
2003-10-02,-4.86, -2.60, -10.69, 1.96, 1.92, 8.43, repro,
2003-10-03,-4.62, -1.75, -14.46, 1.88, 1.81, 7.92, repro,
2003-10-04,-4.08, -2.16, -9.55, 2.10, 1.97, 8.76, repro,
2003-10-05,-5.69, -2.65, -8.73, 1.90, 1.85, 8.04, repro,
2003-10-06,-4.56, -2.89, -14.17, 1.97, 1.90, 8.29, repro,
2003-10-07,-5.73, -3.62, -5.51, 2.08, 1.94, 8.86, repro,
2003-10-08,-3.80, -1.91, -16.41, 2.02, 1.92, 8.65, repro,
2003-10-09,-3.83, -2.64, -6.00, 1.89, 1.78, 7.97, repro,
2003-10-10,-4.32, -2.23, -10.71, 1.93, 1.89, 8.31, repro,
2003-10-11,-6.64, -2.72, -11.07, 1.86, 1.76, 7.78, repro,
2003-10-12,-5.86, -2.14, -14.57, 2.00, 2.00, 8.50, repro,
2003-10-13,-3.60, -2.50, -11.36, 1.88, 1.79, 7.90, repro,
2003-10-14,-4.98, -4.11, -9.72, 1.89, 1.78, 7.93, repro,
2003-10-15,-4.23, -2.46, -13.71, 1.89, 1.78, 7.94, repro,
2003-10-16,-4.97, -2.22, -17.73, 1.81, 1.73, 7.51, repro,
2003-10-17,-5.78, -2.75, -13.31, 1.97, 1.85, 8.34, repro,
2003-10-18,-5.25, -2.55, -16.35, 1.87, 1.78, 7.79, repro,
2003-10-19,-5.79, -2.54, -16.59, 1.88, 1.76, 7.86, repro,
2003-10-20,-4.42, -3.11, -19.22, 1.93, 1.79, 8.01, repro,
2003-10-21,-5.81, -3.62, -16.43, 1.82, 1.72, 7.49, repro,
2003-10-22,-4.32, -4.36, -16.72, 1.96, 1.90, 8.04, repro,
2003-10-23,-5.31, -2.79, -16.07, 1.86, 1.78, 7.76, repro,
2003-10-24,-5.36, -3.86, -18.73, 2.02, 1.89, 8.36, repro,
2003-10-25,-7.22, -3.19, -10.64, 1.88, 1.82, 7.82, repro,
2003-10-26,-3.96, -3.09, -18.02, 1.89, 1.76, 7.84, repro,
2003-10-27,-4.61, -2.82, -22.11, 1.86, 1.80, 7.63, repro,
2003-10-28,-5.93, -2.38, -12.86, 1.89, 1.86, 7.87, repro,
2003-10-29,-5.58, -2.04, -17.02, 2.08, 1.98, 8.39, repro,
2003-10-30,-5.54, -3.18, -16.40, 2.25, 2.13, 9.23, repro,
2003-10-31,-5.57, -3.58, -25.53, 1.95, 1.88, 8.16, repro,
2003-11-01,-4.78, -2.57, -18.66, 1.84, 1.74, 7.56, repro,
2003-11-02,-5.84, -5.35, -21.77, 1.90, 1.84, 7.83, repro,
2003-11-03,-5.74, -5.22, -22.52, 1.87, 1.77, 7.59, repro,
2003-11-04,-5.11, -4.09, -17.76, 1.88, 1.79, 7.69, repro,
2003-11-05,-5.48, -3.60, -21.29, 1.87, 1.78, 7.67, repro,
2003-11-06,-3.87, -3.28, -20.82, 1.84, 1.74, 7.55, repro,
2003-11-07,-5.45, -4.72, -19.48, 1.88, 1.79, 7.66, repro,
2003-11-08,-4.85, -4.37, -28.39, 1.95, 1.93, 7.94, repro,
2003-11-09,-4.29, -3.35, -25.67, 1.87, 1.78, 7.70, repro,
2003-11-10,-5.63, -3.83, -23.39, 1.93, 1.84, 7.82, repro,
2003-11-11,-5.61, -3.74, -20.14, 1.92, 1.83, 7.81, repro,
2003-11-12,-4.88, -3.53, -21.39, 1.88, 1.80, 7.69, repro,
2003-11-13,-3.87, -4.55, -23.57, 1.98, 1.96, 8.31, repro,
2003-11-14,-4.53, -2.68, -16.25, 1.98, 1.89, 8.23, repro,
2003-11-15,-4.91, -2.51, -18.87, 1.89, 1.78, 7.76, repro,
2003-11-16,-4.87, -2.27, -22.42, 1.99, 1.88, 8.02, repro,
2003-11-17,-4.93, -3.22, -24.52, 2.00, 2.06, 8.36, repro,
2003-11-18,-3.65, -2.92, -17.77, 2.13, 2.10, 9.00, repro,
2003-11-19,-3.45, -2.75, -16.14, 1.85, 1.79, 7.56, repro,
2003-11-20,-3.81, -1.97, -18.43, 1.97, 1.86, 8.10, repro,
2003-11-21,-5.18, -2.04, -19.06, 2.01, 2.01, 8.40, repro,
2003-11-22,-4.22, -2.64, -21.61, 1.97, 1.86, 7.92, repro,
2003-11-23,-4.38, -2.14, -22.88, 1.97, 1.87, 7.97, repro,
2003-11-24,-3.01, -3.73, -23.20, 1.95, 1.91, 8.11, repro,
2003-11-25,-3.85, -0.54, -20.06, 1.97, 1.93, 7.99, repro,
2003-11-26,-3.99, -0.22, -13.33, 1.81, 1.73, 7.48, repro,
2003-11-27,-3.48, -1.31, -24.03, 1.89, 1.81, 7.88, repro,
2003-11-28,-4.77, 1.12, -27.55, 1.90, 1.82, 7.72, repro,
2003-11-29,-3.72, 0.84, -25.40, 1.92, 1.82, 7.77, repro,
2003-11-30,-2.37, 1.49, -26.69, 1.85, 1.78, 7.63, repro,
2003-12-01,-2.61, 0.90, -28.67, 1.85, 1.79, 7.70, repro,
2003-12-02,-2.47, 1.94, -22.26, 2.05, 2.00, 8.47, repro,
2003-12-03,-1.65, 0.14, -25.51, 2.01, 1.91, 8.14, repro,
2003-12-04,-3.01, 1.22, -25.12, 1.94, 1.84, 8.01, repro,
2003-12-05,-1.85, 1.25, -24.76, 1.89, 1.81, 7.86, repro,
2003-12-06,-1.07, 1.73, -15.18, 2.18, 2.23, 9.23, repro,
2003-12-07,-2.31, 2.36, -19.50, 1.85, 1.76, 7.56, repro,
2003-12-08,-3.55, 2.82, -15.83, 1.91, 1.83, 7.70, repro,
2003-12-09,-2.30, 1.73, -16.38, 1.82, 1.77, 7.60, repro,
2003-12-10,-1.95, 2.70, -12.69, 2.00, 1.83, 8.20, repro,
2003-12-11,-2.40, 3.39, -10.83, 2.08, 2.00, 8.20, repro,
2003-12-12,-2.33, 2.32, -18.31, 1.88, 1.81, 7.70, repro,
2003-12-13,-3.10, 3.64, -13.13, 1.85, 1.79, 7.59, repro,
2003-12-14,-1.34, 2.14, -15.24, 2.06, 1.97, 8.38, repro,
2003-12-15,-3.56, 3.04, -15.39, 1.91, 1.82, 7.69, repro,
2003-12-16,-0.88, 0.88, -15.55, 1.93, 1.91, 7.81, repro,
2003-12-17,-0.49, 1.01, -19.26, 1.95, 1.91, 7.84, repro,
2003-12-18,-1.55, 1.87, -23.98, 1.96, 1.84, 7.84, repro,
2003-12-19,-0.71, 1.79, -16.82, 2.10, 2.02, 8.52, repro,
2003-12-20,-0.51, 1.80, -20.11, 2.04, 1.95, 8.36, repro,
2003-12-21,-0.13, 2.30, -20.64, 2.09, 2.04, 8.46, repro,
2003-12-22,-1.63, 0.49, -22.36, 1.95, 1.90, 7.97, repro,
2003-12-23,-2.92, -0.43, -9.02, 1.95, 1.86, 8.14, repro,
2003-12-24,-1.36, 1.10, -13.98, 2.22, 2.29, 9.10, repro,
2003-12-25,-0.65, 1.30, -10.22, 2.15, 2.14, 8.94, repro,
2003-12-26,-0.31, 1.88, -13.30, 1.89, 1.82, 7.95, repro,
2003-12-27,-1.46, 2.46, -14.36, 1.91, 1.91, 8.05, repro,
2003-12-28,-0.99, 1.24, -14.80, 1.88, 1.85, 7.84, repro,
2003-12-29,-0.05, 1.96, -16.44, 1.91, 1.84, 8.00, repro,
2003-12-30,0.11, 1.76, -24.02, 1.84, 1.76, 7.59, repro,
2003-12-31,-0.95, 1.72, -22.49, 1.85, 1.77, 7.62, repro,
2004-01-01,-0.39, 2.35, -16.27, 1.90, 1.81, 7.95, repro,
2004-01-02,-2.15, 1.15, -13.52, 1.92, 1.84, 7.93, repro,
2004-01-03,-1.80, 0.72, -13.19, 1.95, 1.86, 8.15, repro,
2004-01-04,-0.96, 1.37, -12.48, 1.94, 1.84, 7.92, repro,
2004-01-05,-1.74, 0.86, -14.44, 1.96, 1.87, 8.17, repro,
2004-01-06,-0.16, 1.05, -19.96, 1.95, 1.82, 8.12, repro,
2004-01-07,0.26, 3.03, -21.55, 1.90, 1.82, 7.91, repro,
2004-01-08,-0.34, 2.67, -20.70, 1.96, 1.86, 8.16, repro,
2004-01-09,0.21, 2.47, -25.69, 1.92, 1.83, 7.88, repro,
2004-01-10,0.41, 3.26, -24.79, 1.83, 1.76, 7.55, repro,
2004-01-11,-0.15, 3.80, -21.19, 1.94, 1.87, 7.95, repro,
2004-01-12,-0.74, 2.46, -24.98, 2.06, 1.98, 8.52, repro,
2004-01-13,0.88, 2.90, -15.80, 1.98, 2.01, 8.17, repro,
2004-01-14,0.99, 2.67, -19.55, 1.95, 1.97, 7.93, repro,
2004-01-15,-0.19, 1.93, -13.29, 1.86, 1.84, 7.71, repro,
2004-01-16,-0.65, 1.83, -10.15, 1.97, 1.98, 8.33, repro,
2004-01-17,-1.51, 1.31, -11.11, 1.89, 1.83, 7.91, repro,
2004-01-18,-2.07, 1.52, -11.64, 1.95, 1.91, 8.15, repro,
2004-01-19,0.08, 3.25, -13.15, 1.86, 1.80, 7.75, repro,
2004-01-20,0.80, 3.60, -15.49, 1.93, 1.86, 8.11, repro,
2004-01-21,0.69, 2.62, -17.89, 1.94, 1.91, 8.20, repro,
2004-01-22,1.49, 3.85, -15.07, 1.92, 1.89, 8.11, repro,
2004-01-23,1.34, 3.62, -11.45, 1.85, 1.78, 7.75, repro,
2004-01-24,-0.20, 3.96, -11.31, 1.98, 1.99, 8.15, repro,
2004-01-25,-0.96, 4.28, 0.01, 1.94, 1.87, 8.22, repro,
2004-01-26,-0.98, 2.88, -11.07, 1.91, 1.92, 7.95, repro,
2004-01-27,1.27, 3.68, -13.32, 1.82, 1.78, 7.58, repro,
2004-01-28,2.72, 3.59, -18.40, 2.03, 1.93, 8.73, repro,
2004-01-29,2.11, 3.47, -12.48, 1.97, 1.94, 8.51, repro,
2004-01-30,1.57, 2.17, -14.32, 1.93, 1.90, 7.92, repro,
2004-01-31,0.91, 3.03, -18.93, 1.83, 1.79, 7.72, repro,
2004-02-01,1.60, 2.97, -12.15, 1.80, 1.79, 7.56, repro,
2004-02-02,0.52, 3.72, -16.30, 1.79, 1.72, 7.43, repro,
2004-02-03,2.12, 3.05, -17.27, 1.88, 1.80, 7.85, repro,
2004-02-04,2.05, 1.87, -17.99, 1.96, 1.89, 7.99, repro,
2004-02-05,0.33, 6.02, -11.44, 1.86, 1.80, 7.77, repro,
2004-02-06,2.99, 0.11, -20.92, 1.88, 1.87, 7.90, repro,
2004-02-07,1.24, 1.69, -26.25, 1.87, 1.80, 7.89, repro,
2004-02-08,1.90, 2.17, -21.92, 1.82, 1.77, 7.56, repro,
2004-02-09,0.95, 1.75, -20.56, 1.79, 1.71, 7.38, repro,
2004-02-10,0.86, 0.40, -15.46, 1.83, 1.73, 7.52, repro,
2004-02-11,0.79, 2.25, -19.31, 1.77, 1.71, 7.33, repro,
2004-02-12,2.47, 1.41, -10.52, 1.88, 1.77, 7.69, repro,
2004-02-13,1.71, 3.95, -11.11, 1.88, 1.76, 7.61, repro,
2004-02-14,0.97, 2.04, -15.31, 1.79, 1.69, 7.31, repro,
2004-02-15,0.15, 3.78, -13.98, 1.96, 1.80, 7.77, repro,
2004-02-16,1.08, 3.87, -18.19, 1.88, 1.77, 7.65, repro,
2004-02-17,0.57, 3.32, -21.91, 1.88, 1.77, 7.65, repro,
2004-02-18,2.12, 4.29, -11.93, 1.82, 1.72, 7.49, repro,
2004-02-19,1.63, 3.78, -8.87, 1.82, 1.73, 7.50, repro,
2004-02-20,1.04, 3.39, -1.78, 1.83, 1.72, 7.47, repro,
2004-02-21,1.96, 2.66, -1.11, 1.82, 1.73, 7.51, repro,
2004-02-22,1.14, 3.16, -8.16, 1.87, 1.74, 7.76, repro,
2004-02-23,2.47, 4.43, -6.76, 1.93, 1.82, 8.09, repro,
2004-02-24,1.96, 3.24, -12.64, 1.90, 1.81, 7.87, repro,
2004-02-25,1.21, 5.59, -0.31, 1.97, 1.89, 7.98, repro,
2004-02-26,1.22, 4.07, -5.92, 1.87, 1.74, 7.70, repro,
2004-02-27,2.14, 5.10, -7.28, 1.88, 1.74, 7.74, repro,
2004-02-28,1.73, 3.64, -12.15, 1.87, 1.76, 7.77, repro,
2004-02-29,1.24, 3.29, -7.41, 1.86, 1.75, 7.69, repro,
2004-03-01,-0.39, 4.13, -3.96, 1.89, 1.80, 7.93, repro,
2004-03-02,0.70, 3.08, -9.82, 1.92, 1.81, 7.92, repro,
2004-03-03,1.54, 1.59, -8.07, 1.97, 1.84, 8.08, repro,
2004-03-04,0.40, 0.78, 1.15, 1.93, 1.81, 8.01, repro,
2004-03-05,-0.42, 1.64, -2.18, 1.88, 1.80, 7.95, repro,
2004-03-06,-0.94, 0.31, -7.84, 2.25, 2.26, 9.72, repro,
2004-03-07,0.43, -0.07, -11.99, 1.87, 1.78, 7.82, repro,
2004-03-08,0.87, 0.51, -9.56, 1.90, 1.81, 8.04, repro,
2004-03-09,1.02, 1.99, -4.67, 1.95, 1.80, 8.23, repro,
2004-03-10,1.17, 2.01, -10.39, 1.87, 1.77, 7.85, repro,
2004-03-11,1.51, 2.25, -9.51, 1.86, 1.76, 7.77, repro,
2004-03-12,0.38, 1.34, -7.80, 1.89, 1.82, 8.06, repro,
2004-03-13,0.22, 1.58, -10.79, 1.90, 1.83, 8.07, repro,
2004-03-14,0.19, 2.58, -13.94, 1.93, 1.85, 8.12, repro,
2004-03-15,0.26, 3.99, -15.04, 1.90, 1.82, 8.09, repro,
2004-03-16,0.58, 1.91, -6.79, 1.88, 1.79, 7.87, repro,
2004-03-17,0.81, 1.40, -4.77, 2.04, 1.98, 8.70, repro,
2004-03-18,0.42, 0.58, -9.74, 1.92, 1.81, 7.95, repro,
2004-03-19,0.64, 2.35, -15.13, 1.94, 1.83, 8.03, repro,
2004-03-20,0.67, 1.47, -15.96, 1.95, 1.89, 8.27, repro,
2004-03-21,0.75, 1.63, -22.40, 1.93, 1.82, 7.99, repro,
2004-03-22,1.17, 3.68, -14.85, 1.88, 1.78, 7.84, repro,
2004-03-23,1.27, 2.82, -15.28, 1.89, 1.83, 8.09, repro,
2004-03-24,-0.35, 3.19, -6.23, 1.88, 1.84, 8.07, repro,
2004-03-25,1.63, 3.24, -6.43, 1.90, 1.85, 8.13, repro,
2004-03-26,1.82, 2.73, -6.04, 1.87, 1.78, 7.84, repro,
2004-03-27,2.29, 3.94, -8.58, 1.88, 1.78, 7.83, repro,
2004-03-28,1.34, 1.89, -6.93, 1.88, 1.75, 7.73, repro,
2004-03-29,1.19, 2.01, -5.96, 2.16, 2.07, 8.95, repro,
2004-03-30,0.76, 2.09, -6.15, 1.91, 1.81, 8.01, repro,
2004-03-31,1.40, 2.79, -5.43, 1.85, 1.75, 7.69, repro,
2004-04-01,0.58, 1.48, -4.34, 1.89, 1.82, 8.04, repro,
2004-04-02,0.54, 1.54, -3.83, 1.85, 1.74, 7.70, repro,
2004-04-03,0.76, 1.17, -7.30, 1.87, 1.76, 7.74, repro,
2004-04-04,1.05, 0.46, -1.13, 1.83, 1.71, 7.57, repro,
2004-04-05,0.96, -0.04, -9.09, 1.84, 1.72, 7.66, repro,
2004-04-06,0.05, 1.47, -10.20, 1.84, 1.72, 7.61, repro,
2004-04-07,0.48, 1.08, -6.61, 1.98, 1.88, 8.16, repro,
2004-04-08,-0.26, 0.47, -1.84, 1.86, 1.74, 7.75, repro,
2004-04-09,0.43, -0.16, -7.68, 1.84, 1.72, 7.61, repro,
2004-04-10,-0.85, 0.42, -6.44, 1.85, 1.72, 7.65, repro,
2004-04-11,-0.70, 1.26, -3.60, 1.90, 1.78, 7.90, repro,
2004-04-12,-1.06, 3.02, -4.39, 1.85, 1.72, 7.65, repro,
2004-04-13,-0.29, 2.78, -5.08, 1.91, 1.77, 7.79, repro,
2004-04-14,-0.13, 2.57, -6.73, 1.91, 1.77, 7.82, repro,
2004-04-15,0.39, 1.97, -10.71, 1.85, 1.72, 7.63, repro,
2004-04-16,0.49, 1.79, -8.68, 1.90, 1.78, 7.91, repro,
2004-04-17,-0.31, 0.50, -5.84, 1.97, 1.90, 8.12, repro,
2004-04-18,-0.13, 0.07, -10.04, 1.95, 1.85, 8.00, repro,
2004-04-19,-0.26, 0.45, -12.17, 1.89, 1.76, 7.83, repro,
2004-04-20,-1.05, -0.07, -10.27, 1.88, 1.75, 7.77, repro,
2004-04-21,-0.67, -0.00, 1.00, 1.88, 1.73, 7.76, repro,
2004-04-22,1.40, -0.14, 0.22, 1.90, 1.79, 7.92, repro,
2004-04-23,-1.15, -1.16, -5.22, 1.91, 1.83, 8.05, repro,
2004-04-24,-0.05, -1.07, -1.89, 1.92, 1.81, 8.01, repro,
2004-04-25,-2.20, 2.44, -2.88, 1.92, 1.82, 8.01, repro,
2004-04-26,0.16, 0.61, -18.61, 1.91, 1.83, 8.09, repro,
2004-04-27,-0.67, 0.09, -7.10, 2.15, 1.99, 8.94, repro,
2004-04-28,-0.57, -0.61, -3.73, 1.97, 1.93, 8.29, repro,
2004-04-29,-1.10, 2.63, -1.69, 1.94, 1.86, 8.25, repro,
2004-04-30,-2.03, 4.05, -4.90, 2.00, 1.89, 8.48, repro,
2004-05-01,-0.28, 4.63, -9.34, 2.08, 2.06, 8.67, repro,
2004-05-02,-0.14, 2.89, -11.89, 2.12, 2.11, 8.70, repro,
2004-05-03,0.12, 3.82, -14.52, 2.08, 1.98, 8.51, repro,
2004-05-04,1.22, 1.72, -5.32, 2.22, 2.02, 9.09, repro,
2004-05-05,0.21, 2.82, -4.14, 2.11, 1.91, 8.74, repro,
2004-05-06,0.51, 0.57, -6.60, 1.92, 1.81, 8.16, repro,
2004-05-07,0.31, -1.30, -1.45, 2.02, 1.88, 8.43, repro,
2004-05-08,1.62, 0.78, -11.29, 2.03, 1.90, 8.47, repro,
2004-05-09,1.01, 2.98, -9.00, 2.05, 1.96, 8.56, repro,
2004-05-10,1.72, 1.49, 1.39, 2.03, 1.90, 8.87, repro,
2004-05-11,0.97, 0.60, -9.47, 1.99, 2.00, 8.58, repro,
2004-05-12,1.66, 3.44, -5.37, 2.02, 1.97, 8.78, repro,
2004-05-13,-0.21, 0.93, -10.36, 2.19, 1.94, 8.99, repro,
2004-05-14,1.04, 3.48, 0.35, 1.95, 1.83, 8.25, repro,
2004-05-15,3.80, 0.53, -12.69, 1.96, 1.87, 8.20, repro,
2004-05-16,0.01, 2.74, -1.15, 2.16, 2.11, 9.09, repro,
2004-05-17,-1.21, 1.13, -5.24, 1.95, 1.81, 7.97, repro,
2004-05-18,0.47, 2.12, -3.79, 2.17, 2.02, 9.02, repro,
2004-05-19,0.85, 3.14, -5.21, 2.08, 1.98, 8.40, repro,
2004-05-20,-0.65, 2.87, -6.12, 1.94, 1.82, 7.89, repro,
2004-05-21,1.13, -2.13, 3.12, 2.16, 2.05, 9.22, repro,
2004-05-22,0.36, 0.93, 0.30, 1.85, 1.74, 7.65, repro,
2004-05-23,0.26, 2.45, -4.79, 1.85, 1.75, 7.65, repro,
2004-05-24,-1.02, 1.12, -0.48, 1.86, 1.74, 7.68, repro,
2004-05-25,-0.46, 1.77, -1.91, 1.91, 1.77, 7.71, repro,
2004-05-26,-1.54, -0.89, -2.02, 1.87, 1.75, 7.71, repro,
2004-05-27,-0.14, -0.83, 9.94, 1.88, 1.78, 7.68, repro,
2004-05-28,0.87, -0.87, 1.73, 1.89, 1.80, 7.77, repro,
2004-05-29,-0.05, -1.12, 8.98, 1.86, 1.75, 7.71, repro,
2004-05-30,-0.58, -2.60, 4.33, 1.84, 1.73, 7.57, repro,
2004-05-31,-0.69, -2.07, 5.80, 1.94, 1.81, 8.26, repro,
2004-06-01,-1.50, -2.79, 1.77, 1.92, 1.82, 7.94, repro,
2004-06-02,-0.43, -0.84, 0.89, 2.02, 2.02, 8.50, repro,
2004-06-03,-2.35, -0.12, -6.31, 2.04, 1.88, 8.26, repro,
2004-06-04,-1.01, 0.71, -2.57, 1.99, 1.86, 8.32, repro,
2004-06-05,-3.10, -1.37, -9.62, 1.95, 1.92, 8.14, repro,
2004-06-06,-0.04, -0.62, -1.32, 1.89, 1.82, 7.89, repro,
2004-06-07,-1.25, 2.30, -3.38, 1.87, 1.79, 7.83, repro,
2004-06-08,-0.72, 3.35, -3.26, 1.90, 1.82, 7.93, repro,
2004-06-09,-0.30, 0.01, 3.58, 1.86, 1.76, 7.75, repro,
2004-06-10,-1.42, -2.01, 1.12, 2.11, 2.19, 8.78, repro,
2004-06-11,0.49, 0.16, -6.13, 1.91, 1.78, 7.96, repro,
2004-06-12,1.24, -1.57, 2.25, 2.08, 2.16, 9.29, repro,
2004-06-13,1.47, 0.54, 1.10, 2.06, 2.04, 8.65, repro,
2004-06-14,0.99, 0.58, -2.46, 1.92, 1.79, 7.92, repro,
2004-06-15,0.53, 3.88, -5.43, 1.90, 1.81, 7.97, repro,
2004-06-16,-1.18, 1.04, -3.29, 2.27, 2.31, 9.71, repro,
2004-06-17,0.22, -1.21, -3.15, 1.97, 1.92, 8.55, repro,
2004-06-18,1.68, -0.05, -2.93, 1.93, 1.83, 8.13, repro,
2004-06-19,0.05, 1.16, -3.80, 1.86, 1.76, 7.76, repro,
2004-06-20,0.77, 0.31, -1.17, 1.86, 1.74, 7.76, repro,
2004-06-21,0.58, 0.58, 12.91, 2.04, 1.97, 8.62, repro,
2004-06-22,-0.91, 1.71, -4.86, 2.17, 2.11, 9.04, repro,
2004-06-23,1.48, 3.13, -3.46, 2.11, 1.97, 8.86, repro,
2004-06-24,1.31, 2.04, -3.41, 2.11, 2.06, 8.89, repro,
2004-06-25,2.36, 5.26, -2.05, 2.03, 2.05, 8.45, repro,
2004-06-26,-0.51, 4.01, -7.41, 1.91, 1.77, 7.94, repro,
2004-06-27,1.67, 4.32, -3.08, 1.96, 1.84, 8.21, repro,
2004-06-28,1.38, 1.82, 5.50, 2.05, 2.01, 8.79, repro,